GFSNE_925_spd_159.txt.gz
Wind_Speed
15 12 12 14 13 12 11 11 6 1 2 5 6 10 10 10 5 5 5 5 6 5 4 2 2 2 2 2 1 2 3 5 5 6 6 6 7 6
18 17 17 16 13 13 13 13 10 6 2 3 7 9 9 7 6 7 5 6 7 6 5 3 2 2 2 2 2 2 3 4 5 6 7 7 8 8
22 20 19 19 17 12 9 10 13 12 8 9 10 9 12 12 9 9 7 8 8 7 4 3 4 3 2 2 2 2 4 5 5 5 6 6 6 6
24 23 23 19 18 18 17 18 16 16 12 13 12 12 12 9 10 7 8 8 9 8 6 5 4 3 3 3 3 3 4 4 5 6 6 8 10 10
29 28 27 25 24 22 20 18 18 16 14 15 13 11 10 12 13 10 10 11 9 7 8 7 7 5 4 3 4 3 4 5 6 7 9 9 9 10
33 33 32 30 29 26 23 22 21 18 16 16 17 15 11 10 15 18 15 13 12 11 11 10 8 7 6 5 5 5 6 7 8 9 9 11 13 14
36 34 33 33 32 29 27 26 23 22 20 18 17 12 13 11 19 17 17 16 14 12 13 11 10 9 8 7 7 7 7 9 10 11 13 13 14 13
40 39 37 36 34 31 29 29 28 26 26 22 20 16 20 18 21 20 20 13 5 15 16 14 12 10 8 9 7 9 10 11 12 12 12 12 12 12
41 38 35 34 33 34 33 30 29 29 27 25 24 25 23 24 24 23 23 21 13 13 20 16 14 9 10 10 11 10 12 13 14 13 12 12 12 11
36 36 33 34 34 32 29 28 30 30 29 28 26 29 26 23 25 28 27 24 13 16 18 7 16 10 11 13 13 12 12 12 12 11 10 9 8 7
34 36 35 36 36 34 31 30 28 29 27 26 24 24 24 24 25 24 24 23 6 10 19 8 16 14 14 13 13 12 12 10 9 7 5 4 3 2
28 36 36 35 34 35 35 32 30 33 30 26 24 21 21 22 24 23 25 25 13 5 15 7 18 11 6 11 14 12 10 9 6 4 1 2 3 3
26 25 29 31 28 32 33 30 33 29 24 21 19 20 20 19 18 15 18 19 12 8 14 5 15 12 5 9 14 14 10 5 6 4 3 4 5 6
29 29 27 24 24 22 24 30 29 24 20 22 22 21 22 25 20 20 19 16 11 11 14 6 9 16 10 8 6 13 9 6 8 3 1 4 4 6
32 33 25 24 18 18 17 20 27 26 22 20 19 17 12 16 34 33 30 29 21 11 10 7 13 13 17 12 12 15 14 8 6 3 3 2 3 5
24 25 25 22 19 15 12 17 22 20 23 26 30 32 28 30 22 24 28 23 21 16 15 14 11 12 17 19 22 17 14 6 7 5 4 4 6 7
18 18 21 21 22 22 22 24 26 31 36 37 36 33 33 28 28 24 30 21 17 14 15 12 15 17 17 17 16 15 11 11 7 3 4 6 6 6
19 21 19 22 24 24 26 27 31 36 36 37 37 37 36 28 28 20 23 19 18 17 17 19 21 20 18 14 12 15 11 8 5 4 4 4 6 5
16 18 21 22 25 24 29 29 29 31 34 36 37 35 32 26 22 20 21 19 20 18 16 17 18 13 6 2 5 6 9 7 4 3 3 4 5 8
28 22 21 27 27 29 31 34 34 35 34 32 32 32 27 25 23 21 20 18 16 14 14 14 12 9 7 8 5 7 6 3 3 2 4 5 7 8
32 33 25 27 32 33 31 31 33 32 33 32 29 24 21 21 18 17 14 12 13 16 16 14 11 9 10 10 8 6 4 1 1 3 4 6 8 6
35 39 35 33 31 34 32 34 33 33 28 22 19 19 18 15 16 16 16 16 15 18 18 14 12 11 8 6 8 6 4 4 2 2 2 5 5 3
32 34 33 30 26 26 25 24 23 20 19 19 18 17 14 12 15 14 14 13 19 19 18 15 11 10 10 9 8 7 5 3 2 5 6 5 8 6

GFSNE_925_spd_162.txt.gz
Wind_Speed
18 17 16 14 14 13 12 11 5 2 2 4 4 6 9 9 7 5 4 7 6 6 5 2 1 1 1 2 2 2 3 4 6 7 7 7 7 7
21 20 19 18 17 14 14 16 15 11 3 4 5 9 8 8 9 6 7 7 7 7 5 2 1 2 2 2 2 3 3 5 6 6 6 7 7 7
24 22 23 21 19 18 16 13 13 14 8 10 11 11 11 11 10 9 10 9 9 7 5 4 4 4 3 3 3 3 4 4 5 5 6 7 8 12
26 25 27 24 23 21 20 20 19 19 17 13 15 14 12 12 12 11 11 11 11 10 8 6 6 5 4 4 4 4 4 4 6 8 10 11 10 10
28 27 27 28 27 25 23 21 21 21 19 18 16 12 10 12 11 11 12 12 12 12 11 9 8 7 6 6 6 5 6 7 9 10 11 12 14 15
26 31 30 31 30 28 28 28 25 23 20 19 18 15 12 10 14 18 14 14 14 14 13 11 10 9 9 8 8 9 8 9 10 12 14 15 16 15
25 28 31 32 32 31 30 30 28 25 23 20 14 12 12 12 17 18 16 17 16 15 16 14 13 11 10 9 10 10 11 11 13 14 15 13 12 12
29 29 29 32 34 35 33 31 31 28 26 21 18 15 19 22 21 19 17 12 6 16 18 16 13 14 13 12 11 13 13 14 15 14 13 13 13 13
30 27 28 30 34 35 33 31 32 33 32 30 24 26 22 26 25 21 24 24 11 17 21 14 17 16 12 13 12 14 14 16 16 14 14 13 11 9
30 31 31 32 30 35 31 30 31 31 33 34 33 32 30 27 24 28 28 22 14 18 23 7 20 17 16 15 14 15 16 16 14 13 11 10 8 7
34 33 34 35 34 35 27 30 31 33 29 29 31 31 31 28 23 26 25 23 6 12 23 11 20 18 15 16 15 15 14 14 12 9 6 4 3 2
31 31 34 35 35 33 32 30 26 32 32 30 30 29 26 21 20 25 27 24 14 6 21 7 27 17 6 12 15 14 13 12 10 7 4 1 2 3
25 27 29 32 35 32 32 33 31 28 28 25 22 16 11 12 16 20 19 27 23 10 19 13 20 16 9 9 13 13 12 10 9 6 3 3 5 5
28 24 27 26 25 25 26 28 30 26 14 14 14 16 16 14 14 14 17 27 21 23 25 17 12 14 11 9 7 16 13 8 9 6 3 3 2 4
33 34 30 26 23 25 22 16 17 24 19 23 21 19 19 21 23 22 21 21 32 25 23 22 17 10 8 11 12 15 14 11 10 6 3 1 2 4
25 28 28 28 27 24 20 16 16 23 26 28 28 29 30 30 31 31 31 29 28 25 19 13 12 16 15 13 21 22 15 7 10 7 3 1 3 4
14 18 19 18 18 17 14 15 19 25 30 33 34 31 31 29 30 31 32 32 25 20 21 16 15 16 17 21 20 17 13 12 9 4 1 2 3 4
5 9 13 17 19 21 24 26 27 30 30 32 31 32 31 32 30 27 28 30 26 26 22 24 23 22 18 12 11 15 12 11 7 3 3 3 2 2
22 20 13 15 18 21 23 25 26 27 31 30 32 30 31 27 28 27 24 21 19 24 25 24 23 20 9 2 5 9 10 9 7 5 2 1 2 5
28 26 24 20 19 23 25 29 30 31 30 31 29 28 26 25 22 22 22 18 21 22 21 20 16 13 10 9 6 8 9 7 6 3 1 2 3 5
28 31 31 28 26 26 28 31 32 33 33 34 34 33 26 24 24 19 17 21 20 17 13 11 10 11 14 13 11 7 7 5 3 2 1 2 4 6
25 28 29 34 37 32 35 38 34 31 33 32 28 27 27 23 18 19 17 15 12 15 16 18 16 14 12 6 8 7 5 4 2 2 2 1 2 3
30 31 31 32 35 33 32 32 33 31 27 25 20 20 20 18 18 17 15 17 20 20 20 17 13 10 9 9 9 7 5 5 4 3 3 1 2 3

GFSNE_925_spd_165.txt.gz
Wind_Speed
14 13 12 12 10 10 10 11 11 8 7 7 5 3 4 6 6 4 4 5 6 6 5 4 3 3 3 3 4 4 5 5 5 6 6 7 8 10
15 14 14 13 12 11 13 13 12 13 8 7 7 5 7 6 7 6 5 7 7 6 6 5 3 4 5 5 4 4 4 5 5 5 5 5 7 11
17 17 18 17 14 14 14 15 15 16 13 14 10 8 8 7 6 6 6 7 9 8 7 5 5 5 5 5 5 5 5 4 4 5 6 9 12 12
16 17 18 17 16 15 15 14 16 15 14 17 15 14 10 7 7 9 6 8 8 10 8 7 7 7 7 7 7 6 5 5 6 8 9 8 8 10
18 18 18 19 18 19 17 16 15 17 17 16 17 14 10 7 7 10 9 10 10 12 12 10 9 9 9 8 8 7 7 8 8 9 11 12 13 14
19 19 19 20 20 20 18 19 19 17 15 15 17 15 11 10 9 13 11 12 11 10 13 12 12 10 9 9 8 8 9 9 11 13 15 15 14 14
18 20 21 22 24 24 21 19 19 19 19 18 17 15 15 9 13 15 16 17 13 14 15 12 12 11 12 11 11 11 11 12 14 15 12 12 12 12
22 23 23 23 25 28 28 26 24 22 22 21 20 19 20 18 14 17 18 12 6 16 20 13 13 13 12 13 13 14 14 15 15 13 12 13 13 12
24 23 23 24 24 24 24 28 27 27 29 25 23 24 22 20 19 16 22 18 13 17 22 14 14 13 15 16 15 15 16 16 15 15 14 13 11 10
27 26 28 27 26 25 24 23 22 22 25 28 29 28 24 23 23 22 19 19 14 20 25 9 18 14 17 18 17 17 17 16 15 15 12 10 9 8
24 26 26 28 31 31 29 27 25 23 19 22 25 26 29 30 26 15 19 22 6 15 27 13 20 18 14 16 15 18 17 16 14 11 9 7 5 4
22 25 28 31 31 30 29 28 26 25 20 16 16 24 26 27 22 19 20 22 11 6 20 13 27 19 7 12 14 17 15 14 13 9 6 4 2 1
22 23 24 23 25 28 32 28 27 23 17 15 12 12 11 12 14 18 19 25 19 11 27 26 24 17 10 12 18 17 13 12 10 8 5 3 1 1
27 24 24 24 23 21 22 29 28 27 19 13 14 14 14 9 9 10 16 21 22 21 30 41 27 30 22 15 11 21 17 13 13 8 6 3 1 3
26 26 27 26 23 21 27 20 21 21 21 20 17 21 18 20 21 16 10 11 9 11 15 14 39 35 34 20 17 22 20 16 13 9 7 5 2 1
18 18 22 25 22 19 18 22 22 21 23 20 19 18 20 21 20 21 25 25 26 23 24 26 28 27 24 23 23 22 13 9 13 10 7 4 2 2
10 12 14 15 15 16 15 15 19 23 23 22 25 24 23 23 23 23 23 21 24 22 21 24 21 16 15 17 17 18 17 15 12 10 7 5 3 2
6 7 6 9 10 10 15 16 24 24 26 28 28 26 26 25 25 25 25 25 26 24 27 24 24 27 22 19 16 18 13 12 10 8 6 3 3 2
21 19 17 14 12 15 19 23 22 22 28 29 28 27 28 27 26 24 24 21 18 16 21 23 19 18 15 8 7 11 12 11 9 6 5 3 2 2
24 23 21 20 20 19 19 24 26 27 28 29 31 28 27 26 21 18 15 12 16 18 14 12 13 12 12 11 10 8 11 10 8 6 5 3 2 3
22 24 25 26 24 26 27 25 25 27 29 31 28 26 25 23 18 15 14 15 18 16 15 14 9 10 13 13 12 12 8 9 7 4 4 3 3 5
18 20 24 24 25 25 27 29 29 28 27 25 24 27 27 22 19 15 14 15 13 13 12 11 13 11 8 5 8 10 9 6 4 4 5 3 3 4
20 20 20 21 25 26 28 24 25 27 25 22 22 20 17 16 14 13 13 10 11 13 14 14 11 8 7 6 6 8 8 7 5 4 4 5 2 3

GFSNE_925_spd_168.txt.gz
Wind_Speed
13 13 12 12 11 12 11 12 11 8 7 5 5 4 3 4 5 3 4 7 8 8 8 8 7 6 7 6 6 6 5 4 4 4 5 5 5 8
16 15 14 14 13 12 13 13 12 13 8 11 6 4 5 7 6 4 8 6 8 9 10 9 7 7 8 7 7 6 6 6 5 4 3 4 7 10
16 16 16 16 16 16 14 15 13 14 14 16 10 6 6 8 6 5 5 6 7 11 11 9 9 9 9 8 7 6 5 4 4 4 6 10 10 10
17 17 18 18 17 18 17 16 16 14 16 16 14 15 13 9 8 8 8 7 8 13 12 11 11 11 10 9 8 7 6 5 6 8 8 9 11 13
21 21 21 20 20 21 18 17 17 17 17 18 17 15 13 10 7 8 10 8 15 12 14 14 13 12 10 10 10 8 8 8 9 9 10 11 13 14
22 22 22 22 23 22 23 21 20 19 17 17 19 18 15 12 12 10 12 14 14 12 11 12 14 13 12 12 11 10 10 10 11 12 13 13 14 14
24 24 24 25 25 25 22 23 22 21 21 21 20 19 16 11 14 13 12 14 13 18 17 14 14 13 15 15 14 14 13 13 14 14 13 12 12 13
23 23 25 26 27 30 32 31 27 21 24 22 21 20 16 17 19 14 14 13 6 22 19 16 17 16 14 13 16 17 15 16 15 13 13 13 14 14
24 25 26 26 27 27 27 28 30 34 34 27 24 23 20 20 18 16 18 18 14 14 21 17 22 15 13 16 17 18 18 17 15 15 14 12 12 11
25 27 29 30 28 27 26 27 27 27 26 32 33 29 25 22 20 21 19 17 12 21 25 11 19 14 14 14 19 20 20 18 16 17 14 11 9 8
23 25 27 29 31 33 31 31 29 28 25 25 27 28 29 26 24 18 18 17 5 12 29 11 19 17 14 15 15 17 22 18 15 14 13 9 7 4
22 23 26 30 32 32 29 27 30 29 24 21 24 24 25 22 26 22 19 22 14 8 24 16 27 17 7 14 17 19 20 19 14 12 10 8 5 5
22 24 25 26 26 27 29 33 30 26 23 22 22 17 14 12 18 17 22 22 17 7 26 29 22 19 8 16 23 24 24 19 15 14 12 10 7 6
25 26 27 28 28 29 24 23 31 30 20 14 16 19 14 15 13 12 13 12 16 15 16 30 20 35 21 24 19 26 25 20 17 14 12 9 7 7
26 28 27 26 25 24 24 28 23 24 24 17 21 16 10 14 16 13 10 8 8 6 9 32 17 24 29 25 25 25 19 18 16 13 11 9 7 5
24 19 15 16 17 14 16 16 19 21 20 21 20 18 16 15 13 11 11 10 12 16 13 16 21 32 23 27 28 25 19 14 19 15 13 10 7 5
15 11 10 10 11 12 13 15 12 15 21 23 23 21 19 17 15 13 14 11 17 18 25 27 27 26 23 30 22 30 21 13 19 16 14 10 7 5
10 12 11 5 6 6 8 8 15 21 21 23 23 23 22 21 20 17 18 21 22 21 23 27 31 31 25 15 17 23 16 17 16 14 11 9 8 6
15 15 16 16 14 13 14 16 18 18 21 23 24 24 25 24 22 21 20 21 19 22 25 28 26 22 13 5 11 18 19 16 15 13 9 7 5 5
21 19 17 17 19 20 20 22 24 22 26 27 28 27 24 23 22 20 18 17 18 16 17 18 17 21 14 15 14 12 15 13 12 9 7 6 4 5
19 20 20 19 21 22 24 26 25 25 25 26 25 25 23 23 21 18 20 20 24 19 16 16 10 12 14 13 14 13 10 7 7 4 7 6 6 5
19 19 17 19 22 22 23 24 26 25 24 22 21 21 21 19 18 20 19 21 21 19 16 14 12 11 11 10 11 11 10 8 6 7 5 0 3 5
16 16 17 20 20 20 20 22 24 26 23 21 23 21 21 20 17 15 13 11 14 14 14 14 12 7 5 3 5 9 9 8 8 7 6 6 4 4

GFSNE_925_spd_171.txt.gz
Wind_Speed
12 12 12 14 17 13 14 12 10 8 8 8 9 7 5 4 7 6 14 8 10 12 11 11 10 9 8 8 8 7 5 5 4 4 4 3 4 5
16 17 16 18 18 12 14 14 14 13 7 18 12 7 5 7 3 5 9 8 11 13 14 14 12 11 11 10 10 8 7 6 5 4 4 4 8 8
15 16 16 17 18 19 16 18 18 16 13 17 13 9 5 7 6 7 7 8 10 16 16 15 14 13 13 12 11 9 8 8 7 6 6 9 9 9
19 19 18 19 19 21 18 19 19 19 18 10 17 17 11 13 9 11 9 12 10 13 16 15 15 14 14 13 12 11 10 8 8 9 10 10 9 12
21 21 21 22 23 22 21 22 21 24 21 20 20 17 19 15 11 8 8 9 11 13 16 16 16 15 14 14 13 12 10 9 10 10 11 12 12 14
22 22 23 23 23 22 23 24 24 22 19 22 22 18 19 20 14 13 10 15 15 12 13 15 18 16 15 14 14 13 12 12 11 11 12 12 14 16
22 22 24 26 28 26 23 24 24 24 25 23 22 22 20 15 17 15 14 12 17 16 14 15 15 17 18 17 16 15 15 14 14 14 15 15 14 13
21 23 24 25 26 29 32 35 31 24 26 26 22 21 23 15 19 19 16 13 5 22 20 16 16 15 15 16 16 19 17 17 17 17 15 14 15 16
22 24 24 26 26 26 28 31 33 35 38 29 27 28 24 15 16 20 20 20 15 14 24 16 19 15 18 16 18 17 18 19 18 17 17 17 16 14
22 24 25 27 27 27 27 26 27 28 30 35 40 36 30 27 20 19 22 22 16 18 26 10 18 15 15 18 16 17 20 18 19 19 19 17 14 13
22 22 24 25 26 25 23 29 33 30 28 28 31 34 38 40 29 20 18 16 4 11 26 13 18 16 14 17 20 22 21 21 21 22 17 14 14 11
22 23 25 27 29 29 28 28 26 28 30 28 25 28 32 29 29 23 20 18 10 6 18 14 23 14 6 10 16 21 18 22 21 18 17 14 10 9
23 24 24 24 24 23 23 23 28 26 29 22 26 22 15 15 21 17 15 13 10 7 21 28 22 19 8 11 21 26 26 23 19 18 15 12 11 12
24 25 24 25 29 30 29 26 26 22 27 26 20 18 20 15 12 10 13 17 18 12 17 27 14 24 16 12 15 30 29 28 25 21 17 15 14 11
22 24 29 30 24 24 27 26 24 22 19 22 17 14 15 14 12 11 9 8 9 7 9 26 27 27 27 18 24 30 29 27 24 20 14 14 12 12
15 17 18 16 16 17 18 14 16 20 19 19 15 15 15 14 14 11 10 8 7 5 7 18 17 24 24 26 34 27 21 11 23 19 16 14 13 10
12 11 13 11 13 13 13 13 15 13 19 16 18 15 16 17 14 12 11 8 9 14 16 12 17 19 24 33 24 27 25 11 21 19 16 14 11 8
11 13 14 13 11 10 10 7 6 8 13 18 19 20 21 20 18 14 14 19 19 16 20 25 29 30 27 21 30 29 24 18 18 21 17 13 10 9
15 17 16 16 13 10 11 12 14 15 16 19 22 21 22 23 22 20 18 19 20 21 22 25 23 22 15 7 16 23 18 14 18 16 16 12 11 14
16 18 18 17 15 14 15 17 20 20 22 23 24 24 22 21 20 20 21 23 23 23 24 23 25 21 18 12 13 16 19 16 16 16 14 10 4 6
16 15 15 16 16 17 17 19 21 22 23 24 24 22 19 19 19 21 23 24 27 21 18 19 19 19 16 18 16 17 14 7 8 8 12 13 15 13
14 13 10 16 15 17 18 19 21 22 21 20 19 19 20 20 21 21 22 22 19 19 19 14 12 16 15 13 15 15 13 8 5 5 4 5 2 0
11 11 12 12 13 14 15 16 19 23 20 19 20 20 22 24 22 20 19 18 19 19 15 15 13 12 10 8 17 14 14 10 10 7 7 11 9 9

GFSNE_925_spd_174.txt.gz
Wind_Speed
14 13 16 12 18 21 21 19 5 2 4 14 16 10 14 12 14 8 7 8 8 10 12 12 12 11 10 9 9 8 6 5 5 4 4 4 4 6
16 15 10 16 20 20 16 19 18 9 4 17 12 4 8 13 5 9 8 9 10 11 12 12 12 11 11 10 9 8 7 7 6 6 6 5 8 7
19 19 17 16 19 24 20 17 18 18 11 19 13 7 5 7 11 9 8 11 12 14 14 13 13 13 12 11 10 9 8 7 7 6 7 11 9 9
19 20 21 19 20 20 23 27 21 21 19 15 21 19 13 9 10 14 11 11 12 12 14 15 15 14 14 13 12 11 10 9 8 8 10 10 9 13
20 21 22 19 22 24 22 21 21 22 21 22 20 22 21 20 16 14 13 14 14 14 12 15 16 16 15 15 14 13 12 11 11 10 11 11 12 14
23 24 22 22 23 23 23 24 26 28 28 26 23 26 29 25 28 22 14 18 19 15 13 13 16 17 17 16 15 14 13 12 11 12 14 15 15 17
23 23 24 25 26 27 27 26 25 27 27 23 23 24 26 21 15 27 22 22 16 18 16 15 16 19 20 18 17 16 15 14 14 15 16 17 17 17
21 22 20 21 25 28 30 30 31 29 27 24 25 22 24 23 25 25 22 14 6 20 22 19 15 17 17 20 19 18 16 15 15 16 17 17 17 16
17 18 20 22 25 25 20 22 24 32 36 34 30 28 29 34 30 20 24 15 10 13 27 18 20 16 15 14 17 18 18 17 15 15 16 16 17 17
23 24 25 28 30 29 26 24 23 22 23 27 36 39 36 37 34 25 18 19 17 14 30 9 20 14 16 16 19 17 19 21 22 20 17 17 16 13
17 19 22 23 23 22 24 26 27 31 26 27 29 33 35 34 35 34 26 17 10 6 29 18 17 16 12 17 18 19 21 17 17 23 24 20 18 14
18 19 19 20 21 20 22 21 22 23 21 27 29 23 24 29 33 31 30 23 10 4 11 7 21 13 6 11 16 21 24 23 24 19 19 20 18 15
19 20 20 20 24 25 24 23 24 24 25 23 22 25 23 24 22 20 22 29 21 11 18 23 19 17 8 9 16 21 25 27 25 23 22 19 16 13
19 20 21 22 24 28 31 35 35 28 23 22 22 24 22 21 16 16 16 14 15 16 12 24 16 27 16 10 9 25 24 27 27 26 22 21 18 17
19 22 25 25 26 23 18 16 15 21 21 18 19 19 16 15 17 12 9 8 11 10 14 21 20 23 26 16 16 26 30 32 31 27 24 20 20 16
19 19 18 17 15 14 16 16 16 13 16 16 19 11 16 16 13 13 16 14 17 16 18 16 15 20 20 16 26 29 28 15 34 28 22 20 18 15
15 15 17 16 15 15 16 12 10 10 13 17 11 15 18 18 16 14 13 10 11 12 11 9 9 12 15 22 23 29 24 17 34 27 21 17 17 14
12 14 14 16 15 14 13 7 5 4 11 12 14 18 19 21 18 15 14 16 20 18 20 18 18 21 22 16 25 27 23 21 32 25 21 17 15 14
15 14 14 14 13 12 10 11 13 12 10 17 20 21 20 21 20 20 21 22 21 21 20 22 22 20 14 6 14 26 26 21 26 22 23 19 16 19
11 11 11 11 11 10 10 13 15 14 16 19 21 22 22 22 20 17 17 20 20 20 20 19 17 18 17 11 11 19 21 12 19 21 21 15 8 8
7 9 12 11 10 10 11 12 14 16 19 22 23 23 21 18 19 19 20 22 21 19 16 15 19 20 19 17 16 13 15 9 15 16 17 18 17 15
8 6 5 8 12 13 13 14 17 18 20 21 23 22 22 20 21 23 27 25 22 23 22 22 20 17 18 17 17 20 16 11 6 6 12 15 6 5
6 7 5 5 7 8 10 14 20 21 19 17 16 18 19 18 20 22 21 21 25 20 18 17 18 18 16 17 20 20 17 15 9 6 7 7 5 7